| time (UTC) | temp C | wind direction | speed KPH | gust KPH | rain 1hr cm | rain 24hr cm | rain mn cm | humidity % | barometer mb |
| 20260831141326 | 24 | 250 | 0.0 | 3.2 | 0.00 | 0.46 | 0.00 | 79 | 1018.4 |
| 20260831140820 | 24 | 183 | 0.0 | 1.6 | 0.00 | 0.46 | 0.00 | 80 | 1018.4 |
| 20260831140314 | 24 | 181 | 0.0 | 1.6 | 0.00 | 0.48 | 0.00 | 80 | 1018.4 |
| 20260831135808 | 23 | 278 | 0.0 | 1.6 | 0.00 | 0.48 | 0.00 | 81 | 1018.4 |
| 20260831135306 | 23 | 215 | 0.0 | 1.6 | 0.00 | 0.51 | 0.00 | 82 | 1018.3 |
| 20260831135028 | 23 | 218 | 0.0 | 3.2 | 0.00 | 0.53 | 0.00 | 83 | 1018.2 |
| 20260831134250 | 23 | 198 | 0.0 | 3.2 | 0.00 | 0.53 | 0.00 | 82 | 1018.2 |
| 20260831133744 | 23 | 233 | 0.0 | 0.0 | 0.00 | 0.56 | 0.00 | 83 | 1018.4 |
| 20260831133238 | 23 | 200 | 0.0 | 0.0 | 0.00 | 0.61 | 0.00 | 83 | 1018.5 |
| 20260831132732 | 23 | 200 | 0.0 | 0.0 | 0.00 | 0.66 | 0.00 | 83 | 1018.4 |
| 20260831132226 | 22 | 198 | 0.0 | 0.0 | 0.00 | 0.69 | 0.00 | 83 | 1018.4 |
| 20260831131720 | 23 | 198 | 0.0 | 0.0 | 0.00 | 0.71 | 0.00 | 83 | 1018.4 |
| 20260831131214 | 22 | 198 | 0.0 | 0.0 | 0.00 | 0.74 | 0.00 | 83 | 1018.4 |
| 20260831130708 | 22 | 202 | 0.0 | 0.0 | 0.00 | 0.76 | 0.00 | 83 | 1018.3 |
| 20260831130202 | 22 | 200 | 0.0 | 0.0 | 0.00 | 0.76 | 0.00 | 83 | 1018.2 |
| 20260831125656 | 22 | 200 | 0.0 | 1.6 | 0.00 | 0.76 | 0.00 | 83 | 1018.2 |
| 20260831125150 | 22 | 211 | 0.0 | 1.6 | 0.00 | 0.76 | 0.00 | 84 | 1018.3 |
| 20260831124644 | 22 | 207 | 0.0 | 0.0 | 0.00 | 0.76 | 0.00 | 84 | 1018.2 |
| 20260831124138 | 22 | 218 | 0.0 | 0.0 | 0.00 | 0.76 | 0.00 | 85 | 1018.2 |
| 20260831123632 | 22 | 218 | 0.0 | 0.0 | 0.00 | 0.76 | 0.00 | 85 | 1018.1 |
| 20260831123126 | 22 | 218 | 0.0 | 0.0 | 0.00 | 0.79 | 0.00 | 85 | 1018.0 |
| 20260831122620 | 22 | 218 | 0.0 | 0.0 | 0.00 | 0.79 | 0.00 | 85 | 1018.2 |
| 20260831122113 | 22 | 218 | 0.0 | 0.0 | 0.00 | 0.79 | 0.00 | 86 | 1018.2 |
| 20260831121607 | 22 | 218 | 0.0 | 0.0 | 0.00 | 0.79 | 0.00 | 86 | 1018.2 |
| 20260831121102 | 22 | 218 | 0.0 | 0.0 | 0.00 | 0.79 | 0.00 | 86 | 1018.2 |
| 20260831120555 | 22 | 218 | 0.0 | 0.0 | 0.00 | 0.79 | 0.00 | 86 | 1018.2 |
| 20260831120049 | 21 | 221 | 0.0 | 0.0 | 0.00 | 0.79 | 0.00 | 86 | 1018.2 |
| 20260831115544 | 21 | 224 | 0.0 | 0.0 | 0.00 | 0.79 | 0.00 | 86 | 1018.4 |
| 20260831115038 | 21 | 221 | 0.0 | 0.0 | 0.00 | 0.79 | 0.00 | 86 | 1018.4 |
| 20260831114532 | 21 | 221 | 0.0 | 0.0 | 0.00 | 0.79 | 0.00 | 86 | 1018.4 |
| 20260831114026 | 21 | 221 | 0.0 | 0.0 | 0.00 | 0.79 | 0.00 | 86 | 1018.4 |
| 20260831113519 | 21 | 221 | 0.0 | 0.0 | 0.00 | 0.79 | 0.00 | 86 | 1018.4 |
| 20260831113014 | 21 | 221 | 0.0 | 0.0 | 0.00 | 0.79 | 0.00 | 86 | 1018.4 |
| 20260831112508 | 21 | 221 | 0.0 | 0.0 | 0.00 | 0.79 | 0.00 | 87 | 1018.4 |
| 20260831112002 | 21 | 221 | 0.0 | 0.0 | 0.00 | 0.79 | 0.00 | 86 | 1018.3 |
| 20260831111456 | 21 | 221 | 0.0 | 0.0 | 0.00 | 0.79 | 0.00 | 86 | 1018.3 |
| 20260831110950 | 21 | 221 | 0.0 | 0.0 | 0.00 | 0.79 | 0.00 | 86 | 1018.3 |
| 20260831110444 | 21 | 221 | 0.0 | 0.0 | 0.00 | 0.79 | 0.00 | 86 | 1018.3 |
| 20260831110209 | 21 | 221 | 0.0 | 0.0 | 0.00 | 0.79 | 0.00 | 86 | 1018.1 |
| 20260831105432 | 21 | 221 | 0.0 | 0.0 | 0.00 | 0.79 | 0.00 | 86 | 1018.3 |
| 20260831105203 | 21 | 221 | 0.0 | 0.0 | 0.00 | 0.79 | 0.00 | 86 | 1018.3 |
| 20260831104703 | 21 | 221 | 0.0 | 0.0 | 0.00 | 0.79 | 0.00 | 86 | 1018.2 |
| 20260831103932 | 21 | 221 | 0.0 | 1.6 | 0.00 | 0.79 | 0.00 | 86 | 1018.2 |
| 20260831103432 | 21 | 221 | 0.0 | 1.6 | 0.00 | 0.79 | 0.00 | 87 | 1018.1 |
| 20260831102931 | 21 | 222 | 0.0 | 0.0 | 0.00 | 0.79 | 0.00 | 86 | 1018.1 |
| 20260831102432 | 21 | 222 | 0.0 | 0.0 | 0.00 | 0.79 | 0.00 | 86 | 1018.2 |
| 20260831101929 | 21 | 222 | 0.0 | 0.0 | 0.00 | 0.79 | 0.00 | 86 | 1018.1 |
| 20260831101430 | 21 | 222 | 0.0 | 0.0 | 0.00 | 0.79 | 0.00 | 86 | 1018.1 |
| 20260831100929 | 21 | 222 | 0.0 | 0.0 | 0.00 | 0.79 | 0.00 | 86 | 1018.1 |
| 20260831100427 | 21 | 222 | 0.0 | 0.0 | 0.00 | 0.79 | 0.00 | 86 | 1018.1 |
| 20260831095925 | 21 | 222 | 0.0 | 0.0 | 0.00 | 0.81 | 0.00 | 86 | 1018.1 |
| 20260831095656 | 21 | 222 | 0.0 | 0.0 | 0.00 | 0.81 | 0.00 | 86 | 1018.0 |
| 20260831094922 | 21 | 222 | 0.0 | 1.6 | 0.00 | 0.81 | 0.00 | 86 | 1017.9 |
| 20260831094650 | 21 | 222 | 0.0 | 1.6 | 0.00 | 0.81 | 0.00 | 86 | 1017.9 |
| 20260831093919 | 21 | 224 | 0.0 | 0.0 | 0.00 | 0.81 | 0.00 | 85 | 1018.2 |
| 20260831093420 | 21 | 224 | 0.0 | 0.0 | 0.00 | 0.81 | 0.00 | 85 | 1018.3 |
| 20260831092916 | 21 | 224 | 0.0 | 0.0 | 0.00 | 0.81 | 0.00 | 85 | 1018.1 |
| 20260831092412 | 21 | 224 | 0.0 | 1.6 | 0.00 | 0.81 | 0.00 | 85 | 1018.2 |
| 20260831091914 | 21 | 230 | 0.0 | 1.6 | 0.00 | 0.81 | 0.00 | 85 | 1018.1 |
| 20260831091412 | 21 | 240 | 0.0 | 3.2 | 0.00 | 0.81 | 0.00 | 85 | 1018.1 |
| 20260831090913 | 21 | 236 | 0.0 | 3.2 | 0.00 | 0.81 | 0.00 | 85 | 1018.1 |
| 20260831090415 | 21 | 272 | 0.0 | 3.2 | 0.00 | 0.81 | 0.00 | 85 | 1018.1 |
| 20260831085914 | 21 | 264 | 0.0 | 0.0 | 0.00 | 0.81 | 0.00 | 85 | 1018.0 |
| 20260831085412 | 21 | 259 | 0.0 | 1.6 | 0.00 | 0.81 | 0.00 | 85 | 1018.0 |
| 20260831084914 | 21 | 259 | 0.0 | 1.6 | 0.00 | 0.81 | 0.00 | 85 | 1017.9 |
| 20260831084411 | 21 | 252 | 0.0 | 1.6 | 0.00 | 0.81 | 0.00 | 85 | 1017.9 |
| 20260831083909 | 21 | 252 | 0.0 | 1.6 | 0.00 | 0.84 | 0.00 | 85 | 1017.8 |
| 20260831083409 | 21 | 237 | 0.0 | 1.6 | 0.00 | 0.84 | 0.00 | 85 | 1017.8 |
| 20260831082908 | 21 | 238 | 0.0 | 3.2 | 0.00 | 0.84 | 0.00 | 85 | 1017.8 |
| 20260831082641 | 21 | 238 | 0.0 | 3.2 | 0.00 | 0.84 | 0.00 | 85 | 1017.8 |
| 20260831081908 | 21 | 247 | 0.0 | 0.0 | 0.00 | 0.84 | 0.00 | 85 | 1017.8 |
| 20260831081640 | 21 | 197 | 0.0 | 0.0 | 0.00 | 0.84 | 0.00 | 85 | 1017.8 |
| 20260831080909 | 21 | 198 | 0.0 | 0.0 | 0.00 | 0.84 | 0.00 | 85 | 1017.7 |
| 20260831080409 | 21 | 152 | 0.0 | 0.0 | 0.00 | 0.84 | 0.00 | 86 | 1017.8 |
| 20260831075906 | 21 | 155 | 0.0 | 1.6 | 0.00 | 0.84 | 0.00 | 86 | 1017.9 |
| 20260831075404 | 21 | 213 | 0.0 | 1.6 | 0.00 | 0.84 | 0.00 | 86 | 1017.9 |
| 20260831074905 | 21 | 208 | 0.0 | 1.6 | 0.00 | 0.84 | 0.00 | 86 | 1018.0 |
| 20260831074404 | 21 | 208 | 0.0 | 1.6 | 0.00 | 0.84 | 0.00 | 86 | 1017.9 |
| 20260831073904 | 21 | 208 | 0.0 | 1.6 | 0.00 | 0.84 | 0.00 | 86 | 1018.1 |
| 20260831073408 | 21 | 244 | 0.0 | 1.6 | 0.00 | 0.84 | 0.00 | 86 | 1018.1 |
| 20260831072907 | 21 | 252 | 0.0 | 0.0 | 0.00 | 0.84 | 0.00 | 86 | 1018.2 |
| 20260831072407 | 21 | 188 | 0.0 | 0.0 | 0.00 | 0.84 | 0.00 | 86 | 1018.2 |
| 20260831072139 | 21 | 195 | 0.0 | 1.6 | 0.00 | 0.84 | 0.00 | 86 | 1018.1 |
| 20260831071404 | 21 | 217 | 0.0 | 3.2 | 0.00 | 0.84 | 0.00 | 86 | 1018.2 |
| 20260831070904 | 21 | 271 | 0.0 | 3.2 | 0.00 | 0.84 | 0.00 | 86 | 1018.4 |
| 20260831070403 | 21 | 270 | 0.0 | 4.8 | 0.00 | 0.84 | 0.00 | 86 | 1018.4 |
| 20260831065900 | 21 | 280 | 0.0 | 4.8 | 0.00 | 0.84 | 0.00 | 86 | 1018.4 |
| 20260831065402 | 21 | 255 | 0.0 | 1.6 | 0.00 | 0.84 | 0.00 | 86 | 1018.4 |
| 20260831064900 | 21 | 262 | 0.0 | 3.2 | 0.00 | 0.84 | 0.00 | 86 | 1018.6 |
| 20260831064631 | 21 | 258 | 0.0 | 3.2 | 0.00 | 0.84 | 0.00 | 86 | 1018.5 |
| 20260831063901 | 21 | 270 | 0.0 | 0.0 | 0.00 | 0.84 | 0.00 | 85 | 1018.5 |
| 20260831063402 | 21 | 270 | 0.0 | 1.6 | 0.00 | 0.84 | 0.00 | 85 | 1018.5 |
| 20260831062900 | 21 | 270 | 0.0 | 1.6 | 0.00 | 0.84 | 0.00 | 85 | 1018.5 |
| 20260831062632 | 21 | 270 | 0.0 | 4.8 | 0.00 | 0.84 | 0.00 | 85 | 1018.4 |
| 20260831061900 | 21 | 284 | 0.0 | 4.8 | 0.00 | 0.84 | 0.00 | 85 | 1018.6 |
| 20260831061402 | 21 | 153 | 0.0 | 1.6 | 0.00 | 0.84 | 0.00 | 84 | 1018.5 |
| 20260831060901 | 21 | 184 | 0.0 | 1.6 | 0.00 | 0.84 | 0.00 | 84 | 1018.4 |
| 20260831060402 | 21 | 217 | 0.0 | 1.6 | 0.00 | 0.84 | 0.00 | 84 | 1018.5 |
| 20260831055901 | 22 | 225 | 0.0 | 8.0 | 0.00 | 0.84 | 0.00 | 84 | 1018.4 |
| 20260831055631 | 22 | 230 | 0.0 | 8.0 | 0.00 | 0.84 | 0.00 | 84 | 1018.6 |
| 20260831054900 | 22 | 210 | 0.0 | 1.6 | 0.00 | 0.84 | 0.00 | 84 | 1018.6 |
| 20260831054625 | 22 | 204 | 0.0 | 1.6 | 0.00 | 0.84 | 0.00 | 84 | 1018.7 |
| 20260831053849 | 22 | 206 | 0.0 | 1.6 | 0.00 | 0.84 | 0.00 | 84 | 1018.7 |
| 20260831053343 | 22 | 230 | 0.0 | 1.6 | 0.00 | 0.84 | 0.00 | 84 | 1018.7 |
| 20260831052837 | 22 | 230 | 0.0 | 1.6 | 0.00 | 0.84 | 0.00 | 83 | 1018.8 |
| 20260831052331 | 22 | 220 | 0.0 | 3.2 | 0.00 | 0.84 | 0.00 | 83 | 1018.7 |
| 20260831052055 | 22 | 225 | 0.0 | 3.2 | 0.00 | 0.84 | 0.00 | 83 | 1018.7 |
| 20260831051319 | 22 | 210 | 0.0 | 0.0 | 0.00 | 0.84 | 0.00 | 83 | 1018.8 |
| 20260831050813 | 22 | 235 | 0.0 | 4.8 | 0.00 | 0.84 | 0.00 | 82 | 1018.8 |
| 20260831050537 | 22 | 231 | 0.0 | 4.8 | 0.00 | 0.84 | 0.00 | 82 | 1018.8 |
| 20260831050032 | 22 | 209 | 0.0 | 4.8 | 0.00 | 0.84 | 0.00 | 82 | 1018.8 |
| 20260831045255 | 22 | 216 | 1.6 | 4.8 | 0.00 | 0.84 | 0.00 | 82 | 1018.8 |
| 20260831044752 | 22 | 266 | 0.0 | 4.8 | 0.00 | 0.84 | 0.00 | 82 | 1018.9 |
| 20260831044252 | 22 | 195 | 0.0 | 1.6 | 0.00 | 0.84 | 0.00 | 83 | 1018.9 |
| 20260831043751 | 22 | 219 | 1.6 | 6.4 | 0.00 | 0.84 | 0.00 | 82 | 1018.9 |
| 20260831043249 | 22 | 219 | 1.6 | 6.4 | 0.00 | 0.84 | 0.00 | 82 | 1018.9 |
| 20260831042749 | 22 | 227 | 0.0 | 6.4 | 0.00 | 0.84 | 0.00 | 83 | 1018.8 |
| 20260831042248 | 22 | 302 | 0.0 | 3.2 | 0.00 | 0.84 | 0.00 | 83 | 1018.9 |
| 20260831041746 | 22 | 188 | 0.0 | 1.6 | 0.00 | 0.84 | 0.00 | 84 | 1018.8 |
| 20260831041246 | 22 | 189 | 0.0 | 1.6 | 0.00 | 0.84 | 0.00 | 84 | 1018.9 |
| 20260831040749 | 22 | 194 | 0.0 | 0.0 | 0.00 | 0.84 | 0.00 | 83 | 1018.9 |
| 20260831040245 | 22 | 197 | 0.0 | 0.0 | 0.00 | 0.84 | 0.00 | 83 | 1018.9 |
| 20260831035742 | 22 | 194 | 0.0 | 0.0 | 0.00 | 0.84 | 0.84 | 83 | 1018.8 |
| 20260831035243 | 22 | 195 | 0.0 | 0.0 | 0.00 | 0.84 | 0.84 | 83 | 1018.9 |
| 20260831034743 | 22 | 196 | 0.0 | 3.2 | 0.00 | 0.84 | 0.84 | 82 | 1018.9 |
| 20260831034241 | 22 | 195 | 0.0 | 3.2 | 0.00 | 0.84 | 0.84 | 82 | 1018.8 |
| 20260831033738 | 22 | 123 | 0.0 | 1.6 | 0.00 | 0.84 | 0.84 | 82 | 1018.9 |
| 20260831033239 | 22 | 124 | 0.0 | 1.6 | 0.00 | 0.84 | 0.84 | 82 | 1019.0 |
| 20260831032738 | 22 | 176 | 0.0 | 1.6 | 0.00 | 0.84 | 0.84 | 82 | 1018.9 |
| 20260831032237 | 22 | 143 | 0.0 | 1.6 | 0.00 | 0.84 | 0.84 | 82 | 1018.9 |
| 20260831031736 | 22 | 163 | 0.0 | 6.4 | 0.00 | 0.84 | 0.84 | 82 | 1018.9 |
| 20260831031236 | 22 | 214 | 0.0 | 6.4 | 0.00 | 0.84 | 0.84 | 83 | 1018.7 |
| 20260831031008 | 22 | 171 | 0.0 | 1.6 | 0.00 | 0.84 | 0.84 | 82 | 1018.7 |
| 20260831030238 | 22 | 172 | 0.0 | 1.6 | 0.00 | 0.84 | 0.84 | 82 | 1018.7 |
| 20260831025735 | 22 | 89 | 0.0 | 1.6 | 0.00 | 0.84 | 0.84 | 83 | 1018.7 |
| 20260831025234 | 22 | 140 | 0.0 | 1.6 | 0.00 | 0.84 | 0.84 | 83 | 1018.6 |
| 20260831024735 | 22 | 145 | 0.0 | 1.6 | 0.00 | 0.84 | 0.84 | 83 | 1018.5 |
| 20260831024235 | 22 | 140 | 0.0 | 3.2 | 0.00 | 0.84 | 0.84 | 83 | 1018.6 |
| 20260831024003 | 22 | 181 | 0.0 | 4.8 | 0.00 | 0.84 | 0.84 | 82 | 1018.5 |
| 20260831023230 | 22 | 173 | 0.0 | 4.8 | 0.00 | 0.84 | 0.84 | 83 | 1018.6 |
| 20260831022730 | 22 | 176 | 0.0 | 4.8 | 0.00 | 0.84 | 0.84 | 83 | 1018.5 |
| 20260831022231 | 22 | 188 | 0.0 | 4.8 | 0.00 | 0.84 | 0.84 | 83 | 1018.6 |
| 20260831022002 | 22 | 167 | 0.0 | 4.8 | 0.00 | 0.84 | 0.84 | 83 | 1018.6 |
| 20260831021230 | 22 | 202 | 0.0 | 3.2 | 0.00 | 0.84 | 0.84 | 83 | 1018.7 |
| 20260831020730 | 22 | 122 | 0.0 | 1.6 | 0.00 | 0.84 | 0.84 | 84 | 1018.6 |
| 20260831020229 | 21 | 140 | 0.0 | 3.2 | 0.00 | 0.84 | 0.84 | 84 | 1018.6 |
| 20260831015733 | 22 | 138 | 0.0 | 3.2 | 0.00 | 0.84 | 0.84 | 84 | 1018.6 |
| 20260831015231 | 21 | 200 | 0.0 | 3.2 | 0.00 | 0.84 | 0.84 | 84 | 1018.6 |
| 20260831014726 | 21 | 227 | 0.0 | 6.4 | 0.00 | 0.84 | 0.84 | 85 | 1018.6 |
| 20260831014219 | 21 | 152 | 1.6 | 6.4 | 0.00 | 0.84 | 0.84 | 84 | 1018.5 |
| 20260831013713 | 21 | 211 | 1.6 | 6.4 | 0.00 | 0.84 | 0.84 | 85 | 1018.5 |
| 20260831013210 | 21 | 164 | 1.6 | 8.0 | 0.00 | 0.84 | 0.84 | 85 | 1018.5 |
| 20260831012710 | 21 | 231 | 1.6 | 8.0 | 0.00 | 0.84 | 0.84 | 85 | 1018.4 |
| 20260831012210 | 21 | 173 | 1.6 | 8.0 | 0.00 | 0.84 | 0.84 | 85 | 1018.5 |
| 20260831011711 | 21 | 91 | 1.6 | 8.0 | 0.00 | 0.84 | 0.84 | 84 | 1018.5 |
| 20260831011209 | 21 | 144 | 1.6 | 6.4 | 0.00 | 0.84 | 0.84 | 85 | 1018.5 |
| 20260831010709 | 21 | 97 | 1.6 | 6.4 | 0.00 | 0.84 | 0.84 | 85 | 1018.6 |
| 20260831010438 | 21 | 117 | 1.6 | 8.0 | 0.00 | 0.84 | 0.84 | 85 | 1018.6 |
| 20260831005707 | 21 | 150 | 1.6 | 8.0 | 0.00 | 0.84 | 0.84 | 85 | 1018.5 |
| 20260831005209 | 21 | 103 | 1.6 | 6.4 | 0.00 | 0.84 | 0.84 | 85 | 1018.5 |
| 20260831004709 | 21 | 146 | 1.6 | 6.4 | 0.00 | 0.84 | 0.84 | 86 | 1018.4 |
| 20260831004210 | 21 | 184 | 3.2 | 8.0 | 0.00 | 0.84 | 0.84 | 86 | 1018.2 |
| 20260831003710 | 21 | 139 | 3.2 | 8.0 | 0.00 | 0.84 | 0.84 | 86 | 1018.1 |
| 20260831003207 | 21 | 179 | 1.6 | 8.0 | 0.00 | 0.84 | 0.84 | 86 | 1018.1 |
| 20260831002939 | 21 | 127 | 1.6 | 8.0 | 0.00 | 0.84 | 0.84 | 86 | 1018.1 |
| 20260831002207 | 21 | 135 | 3.2 | 9.7 | 0.00 | 0.84 | 0.84 | 86 | 1018.1 |
| 20260831001705 | 21 | 151 | 3.2 | 9.7 | 0.00 | 0.84 | 0.84 | 86 | 1018.1 |
| 20260831001205 | 21 | 141 | 3.2 | 11.3 | 0.00 | 0.84 | 0.84 | 86 | 1018.3 |
| 20260831000707 | 21 | 150 | 3.2 | 11.3 | 0.00 | 0.84 | 0.84 | 86 | 1018.2 |
| 20260831000211 | 21 | 151 | 3.2 | 11.3 | 0.00 | 0.84 | 0.84 | 86 | 1018.4 |
| 20260831000206 | 21 | 130 | 1.6 | 8.0 | 0.00 | 0.84 | 0.84 | 86 | 1018.3 |
| 20260830235207 | 21 | 168 | 3.2 | 11.3 | 0.00 | 0.84 | 0.84 | 86 | 1018.4 |
| 20260830234702 | 21 | 130 | 1.6 | 11.3 | 0.00 | 0.84 | 0.84 | 86 | 1018.5 |
| 20260830234202 | 21 | 153 | 1.6 | 9.7 | 0.00 | 0.84 | 0.84 | 86 | 1018.7 |
| 20260830233703 | 21 | 155 | 3.2 | 6.4 | 0.00 | 0.84 | 0.84 | 86 | 1018.7 |
| 20260830233202 | 21 | 151 | 1.6 | 6.4 | 0.00 | 0.84 | 0.84 | 86 | 1018.8 |
| 20260830232703 | 21 | 149 | 1.6 | 6.4 | 0.00 | 0.84 | 0.84 | 86 | 1018.9 |
| 20260830232202 | 21 | 122 | 1.6 | 6.4 | 0.03 | 0.84 | 0.84 | 87 | 1019.2 |
| 20260830231709 | 21 | 141 | 0.0 | 1.6 | 0.03 | 0.84 | 0.84 | 87 | 1019.4 |
| 20260830231703 | 21 | 141 | 0.0 | 4.8 | 0.03 | 0.84 | 0.84 | 87 | 1019.4 |
| 20260830230935 | 21 | 122 | 0.0 | 1.6 | 0.03 | 0.84 | 0.84 | 88 | 1019.6 |
| 20260830230158 | 21 | 151 | 0.0 | 3.2 | 0.03 | 0.84 | 0.84 | 88 | 1019.5 |
| 20260830225658 | 21 | 148 | 0.0 | 3.2 | 0.03 | 0.84 | 0.84 | 88 | 1019.4 |
| 20260830225159 | 21 | 129 | 0.0 | 3.2 | 0.03 | 0.84 | 0.84 | 88 | 1019.4 |
| 20260830224929 | 21 | 130 | 0.0 | 3.2 | 0.03 | 0.84 | 0.84 | 88 | 1019.4 |
| 20260830224159 | 21 | 119 | 0.0 | 1.6 | 0.03 | 0.84 | 0.84 | 88 | 1019.4 |
| 20260830223932 | 21 | 123 | 0.0 | 1.6 | 0.03 | 0.84 | 0.84 | 88 | 1019.5 |
| 20260830223200 | 21 | 124 | 0.0 | 1.6 | 0.05 | 0.84 | 0.84 | 88 | 1019.4 |
| 20260830222658 | 21 | 145 | 0.0 | 1.6 | 0.15 | 0.84 | 0.84 | 87 | 1019.3 |
| 20260830222159 | 21 | 118 | 0.0 | 1.6 | 0.13 | 0.81 | 0.81 | 87 | 1019.2 |
| 20260830221930 | 21 | 100 | 0.0 | 1.6 | 0.18 | 0.81 | 0.81 | 87 | 1019.1 |
| 20260830221204 | 21 | 141 | 0.0 | 1.6 | 0.20 | 0.81 | 0.81 | 87 | 1019.0 |
| 20260830221159 | 21 | 129 | 0.0 | 1.6 | 0.20 | 0.81 | 0.81 | 87 | 1019.1 |
| 20260830220159 | 21 | 149 | 0.0 | 1.6 | 0.20 | 0.81 | 0.81 | 87 | 1019.2 |
| 20260830215659 | 21 | 124 | 0.0 | 1.6 | 0.20 | 0.81 | 0.81 | 87 | 1019.2 |
| 20260830215159 | 21 | 115 | 0.0 | 1.6 | 0.20 | 0.81 | 0.81 | 87 | 1019.3 |
| 20260830214930 | 22 | 119 | 0.0 | 1.6 | 0.20 | 0.81 | 0.81 | 87 | 1019.3 |
| 20260830214158 | 22 | 117 | 0.0 | 1.6 | 0.20 | 0.81 | 0.81 | 87 | 1019.2 |
| 20260830213928 | 22 | 108 | 0.0 | 3.2 | 0.20 | 0.81 | 0.81 | 86 | 1019.3 |
| 20260830213158 | 22 | 206 | 0.0 | 3.2 | 0.18 | 0.79 | 0.79 | 84 | 1019.1 |
| 20260830212929 | 22 | 134 | 0.0 | 1.6 | 0.08 | 0.69 | 0.69 | 84 | 1019.1 |
| 20260830212159 | 23 | 160 | 1.6 | 6.4 | 0.08 | 0.69 | 0.69 | 83 | 1019.0 |
| 20260830211658 | 23 | 108 | 1.6 | 6.4 | 0.03 | 0.64 | 0.66 | 82 | 1018.7 |
| 20260830211155 | 23 | 137 | 0.0 | 6.4 | 0.00 | 0.61 | 0.61 | 81 | 1018.8 |
| 20260830210655 | 23 | 156 | 0.0 | 3.2 | 0.00 | 0.61 | 0.61 | 82 | 1018.7 |
| 20260830210155 | 23 | 145 | 0.0 | 4.8 | 0.00 | 0.61 | 0.61 | 82 | 1018.8 |
| 20260830205700 | 23 | 207 | 1.6 | 9.7 | 0.00 | 0.61 | 0.61 | 82 | 1018.7 |
| 20260830205655 | 23 | 165 | 1.6 | 9.7 | 0.00 | 0.61 | 0.61 | 83 | 1018.7 |
| 20260830204654 | 23 | 137 | 3.2 | 9.7 | 0.00 | 0.61 | 0.61 | 83 | 1018.7 |
| 20260830204153 | 23 | 188 | 1.6 | 9.7 | 0.00 | 0.61 | 0.61 | 85 | 1018.7 |
| 20260830203651 | 23 | 165 | 3.2 | 9.7 | 0.00 | 0.61 | 0.61 | 86 | 1018.7 |
| 20260830203152 | 22 | 153 | 3.2 | 9.7 | 0.00 | 0.61 | 0.61 | 85 | 1018.7 |
| 20260830202652 | 22 | 148 | 1.6 | 8.0 | 0.00 | 0.61 | 0.61 | 86 | 1018.7 |
| 20260830202144 | 22 | 148 | 1.6 | 8.0 | 0.00 | 0.61 | 0.61 | 86 | 1018.7 |
| 20260830201638 | 22 | 146 | 1.6 | 6.4 | 0.00 | 0.61 | 0.61 | 86 | 1018.8 |
| 20260830201137 | 22 | 137 | 1.6 | 6.4 | 0.00 | 0.61 | 0.61 | 86 | 1018.8 |
| 20260830200635 | 22 | 145 | 1.6 | 6.4 | 0.00 | 0.61 | 0.61 | 86 | 1018.8 |
| 20260830200134 | 22 | 145 | 1.6 | 8.0 | 0.00 | 0.61 | 0.61 | 85 | 1018.9 |
| 20260830195634 | 22 | 126 | 1.6 | 11.3 | 0.08 | 0.61 | 0.61 | 85 | 1018.9 |
| 20260830195134 | 22 | 142 | 1.6 | 11.3 | 0.08 | 0.61 | 0.61 | 85 | 1018.9 |
| 20260830194637 | 22 | 136 | 1.6 | 8.0 | 0.08 | 0.61 | 0.61 | 86 | 1018.8 |
| 20260830194131 | 22 | 137 | 1.6 | 8.0 | 0.08 | 0.61 | 0.61 | 86 | 1018.8 |
| 20260830193632 | 22 | 153 | 0.0 | 4.8 | 0.08 | 0.61 | 0.61 | 86 | 1019.0 |
| 20260830193132 | 22 | 120 | 1.6 | 6.4 | 0.08 | 0.61 | 0.61 | 86 | 1019.1 |
| 20260830192630 | 21 | 84 | 1.6 | 6.4 | 0.08 | 0.61 | 0.61 | 87 | 1019.1 |
| 20260830192131 | 21 | 96 | 1.6 | 6.4 | 0.08 | 0.61 | 0.61 | 87 | 1019.1 |
| 20260830191629 | 21 | 141 | 1.6 | 9.7 | 0.08 | 0.61 | 0.61 | 86 | 1019.2 |
| 20260830191129 | 21 | 184 | 1.6 | 9.7 | 0.08 | 0.61 | 0.61 | 85 | 1019.4 |
| 20260830190629 | 22 | 123 | 0.0 | 3.2 | 0.08 | 0.61 | 0.61 | 86 | 1019.4 |
| 20260830190130 | 22 | 96 | 0.0 | 8.0 | 0.08 | 0.61 | 0.61 | 85 | 1019.4 |
| 20260830185631 | 22 | 160 | 1.6 | 8.0 | 0.00 | 0.53 | 0.53 | 86 | 1019.4 |
| 20260830185132 | 22 | 218 | 1.6 | 6.4 | 0.00 | 0.53 | 0.53 | 87 | 1019.3 |
| 20260830184625 | 22 | 158 | 1.6 | 11.3 | 0.00 | 0.53 | 0.53 | 88 | 1019.3 |
| 20260830184118 | 22 | 143 | 1.6 | 11.3 | 0.00 | 0.53 | 0.53 | 90 | 1019.1 |
| 20260830183618 | 22 | 143 | 1.6 | 6.4 | 0.00 | 0.53 | 0.53 | 92 | 1019.2 |
| 20260830183118 | 21 | 115 | 1.6 | 6.4 | 0.00 | 0.53 | 0.53 | 92 | 1019.2 |
| 20260830182616 | 21 | 175 | 1.6 | 9.7 | 0.00 | 0.53 | 0.53 | 92 | 1019.1 |
| 20260830182345 | 21 | 176 | 1.6 | 9.7 | 0.00 | 0.53 | 0.53 | 91 | 1018.9 |
| 20260830181612 | 21 | 227 | 1.6 | 6.4 | 0.00 | 0.53 | 0.53 | 91 | 1019.3 |
| 20260830181112 | 21 | 197 | 1.6 | 6.4 | 0.00 | 0.53 | 0.53 | 92 | 1019.1 |
| 20260830180612 | 21 | 194 | 3.2 | 22.5 | 0.00 | 0.53 | 0.53 | 92 | 1019.3 |
| 20260830180111 | 21 | 97 | 1.6 | 22.5 | 0.00 | 0.53 | 0.53 | 92 | 1019.4 |
| 20260830175612 | 21 | 236 | 1.6 | 11.3 | 0.00 | 0.53 | 0.53 | 92 | 1019.5 |
| 20260830175112 | 21 | 195 | 1.6 | 4.8 | 0.00 | 0.53 | 0.53 | 93 | 1019.6 |
| 20260830174615 | 21 | 153 | 0.0 | 4.8 | 0.03 | 0.53 | 0.53 | 93 | 1019.7 |
| 20260830174110 | 21 | 186 | 0.0 | 3.2 | 0.03 | 0.53 | 0.53 | 93 | 1019.7 |
| 20260830173611 | 21 | 124 | 0.0 | 3.2 | 0.03 | 0.53 | 0.53 | 93 | 1019.8 |
| 20260830173107 | 20 | 122 | 0.0 | 3.2 | 0.03 | 0.53 | 0.53 | 93 | 1019.9 |
| 20260830172607 | 20 | 203 | 1.6 | 6.4 | 0.03 | 0.53 | 0.53 | 93 | 1020.0 |
| 20260830172107 | 20 | 155 | 1.6 | 6.4 | 0.03 | 0.53 | 0.53 | 93 | 1019.8 |
| 20260830171607 | 20 | 130 | 0.0 | 4.8 | 0.03 | 0.53 | 0.53 | 93 | 1019.8 |
| 20260830171102 | 20 | 140 | 0.0 | 1.6 | 0.03 | 0.53 | 0.53 | 93 | 1020.1 |
| 20260830170556 | 20 | 181 | 0.0 | 1.6 | 0.03 | 0.53 | 0.53 | 93 | 1020.2 |
| 20260830170050 | 20 | 104 | 0.0 | 1.6 | 0.03 | 0.53 | 0.53 | 93 | 1020.2 |
| 20260830165544 | 20 | 110 | 0.0 | 3.2 | 0.03 | 0.53 | 0.53 | 93 | 1020.0 |
| 20260830165038 | 20 | 218 | 0.0 | 3.2 | 0.00 | 0.51 | 0.53 | 92 | 1020.3 |
| 20260830164532 | 20 | 185 | 0.0 | 4.8 | 0.00 | 0.51 | 0.51 | 93 | 1020.4 |
| 20260830164025 | 20 | 210 | 0.0 | 4.8 | 0.03 | 0.51 | 0.51 | 93 | 1020.5 |
| 20260830163520 | 20 | 111 | 0.0 | 3.2 | 0.03 | 0.51 | 0.51 | 93 | 1020.6 |
| 20260830163014 | 20 | 181 | 0.0 | 3.2 | 0.03 | 0.51 | 0.51 | 93 | 1020.9 |
| 20260830162508 | 20 | 151 | 0.0 | 4.8 | 0.03 | 0.51 | 0.51 | 93 | 1021.3 |
| 20260830162001 | 20 | 186 | 0.0 | 6.4 | 0.03 | 0.51 | 0.51 | 93 | 1021.4 |
| 20260830161727 | 20 | 203 | 0.0 | 6.4 | 0.05 | 0.51 | 0.51 | 93 | 1021.4 |
| 20260830161223 | 20 | 253 | 0.0 | 3.2 | 0.05 | 0.51 | 0.51 | 93 | 1021.5 |
| 20260830160444 | 20 | 244 | 0.0 | 1.6 | 0.05 | 0.51 | 0.51 | 93 | 1021.4 |
| 20260830160208 | 20 | 244 | 0.0 | 4.8 | 0.08 | 0.51 | 0.51 | 93 | 1021.4 |
| 20260830155430 | 20 | 268 | 1.6 | 6.4 | 0.08 | 0.51 | 0.51 | 93 | 1021.5 |
| 20260830154924 | 20 | 250 | 1.6 | 8.0 | 0.10 | 0.51 | 0.51 | 92 | 1021.5 |
| 20260830154418 | 20 | 280 | 0.0 | 9.7 | 0.10 | 0.51 | 0.51 | 92 | 1021.5 |
| 20260830154142 | 20 | 240 | 1.6 | 8.0 | 0.08 | 0.48 | 0.48 | 93 | 1021.6 |
| 20260830153406 | 20 | 283 | 1.6 | 8.0 | 0.08 | 0.48 | 0.48 | 92 | 1021.6 |
| 20260830152900 | 20 | 248 | 0.0 | 3.2 | 0.10 | 0.48 | 0.48 | 93 | 1021.8 |
| 20260830152354 | 20 | 248 | 1.6 | 4.8 | 0.10 | 0.48 | 0.48 | 93 | 1021.8 |
| 20260830151847 | 20 | 234 | 1.6 | 6.4 | 0.10 | 0.48 | 0.48 | 93 | 1021.7 |
| 20260830151341 | 20 | 259 | 1.6 | 9.7 | 0.08 | 0.46 | 0.46 | 93 | 1021.7 |
| 20260830150836 | 20 | 295 | 1.6 | 9.7 | 0.08 | 0.46 | 0.46 | 92 | 1021.7 |
| 20260830150330 | 20 | 227 | 3.2 | 16.1 | 0.10 | 0.46 | 0.46 | 92 | 1021.6 |
| 20260830145824 | 19 | 254 | 3.2 | 16.1 | 0.08 | 0.43 | 0.43 | 92 | 1021.6 |
| 20260830145318 | 20 | 245 | 6.4 | 17.7 | 0.10 | 0.43 | 0.43 | 92 | 1021.6 |
| 20260830144812 | 20 | 275 | 8.0 | 17.7 | 0.10 | 0.41 | 0.41 | 92 | 1021.5 |
| 20260830144306 | 20 | 241 | 6.4 | 17.7 | 0.10 | 0.41 | 0.41 | 92 | 1021.6 |
| 20260830144030 | 20 | 251 | 4.8 | 14.5 | 0.13 | 0.41 | 0.41 | 92 | 1021.6 |
| 20260830143254 | 20 | 281 | 4.8 | 16.1 | 0.15 | 0.38 | 0.38 | 92 | 1021.5 |
| 20260830142748 | 20 | 257 | 3.2 | 16.1 | 0.18 | 0.38 | 0.38 | 92 | 1021.3 |
| 20260830142514 | 20 | 231 | 3.2 | 9.7 | 0.23 | 0.38 | 0.38 | 92 | 1021.2 |
| 20260830142006 | 20 | 169 | 3.2 | 12.9 | 0.25 | 0.38 | 0.38 | 92 | 1021.2 |